Find Starlink 31627

NORAD ID: 59268 Int'l Des: 2024-050 Owner: SPXS Country: US Constellation: starlink operational
LEOCIRCULAR

リアルタイム位置

3D地球を読み込み中...

Starlink 31627について

説明を読み込み中...

次回通過

Passes for default location (London). Set your location on the main map for personalized predictions.

高度履歴

Loading altitude history...

軌道要素

1 59268U 24050Q 26133.02249876 .00008565 00000-0 30095-3 0 9998
2 59268 53.1586 242.4933 0001691 87.8565 272.2630 15.30201134120390
Epoch: May 13, 2026 • Age: 15 hours

現在のステータス

高度 475.1 km
速度 7.63 km/s
衛星直下点 19.56°N, 56.96°W
打ち上げ日 Mar 19, 2024
運用期間 2.1 years
タイプ internet

技術仕様

分類 Payload
質量 730.00 kg
乾燥質量 700.00 kg
総質量 730.00 kg
長さ 0.30 m
直径 4.10 m
スパン 29.00 m
形状 Box + pan
製造者 SPXS
バスタイプ Starlink V2M
フェーズステータス In Orbit
所有者/国 SPXS/US

Most Searched